| time (UTC) | temp C | wind direction | speed KPH | gust KPH | rain 1hr cm | rain 24hr cm | rain mn cm | humidity % | barometer mb |
| 20260505041510 | 22 | 98 | 1.6 | 12.9 | 0.00 | 0.00 | 0.00 | 79 | 1011.5 |
| 20260505040510 | 22 | 188 | 4.8 | 14.5 | 0.00 | 0.00 | 0.00 | 78 | 1011.5 |
| 20260505035510 | 23 | 225 | 3.2 | 16.1 | 0.00 | 0.00 | 0.00 | 78 | 1011.7 |
| 20260505035010 | 23 | 183 | 1.6 | 11.3 | 0.00 | 0.00 | 0.00 | 78 | 1011.6 |
| 20260505034510 | 23 | 158 | 3.2 | 11.3 | 0.00 | 0.00 | 0.00 | 78 | 1011.7 |
| 20260505034010 | 23 | 246 | 1.6 | 11.3 | 0.00 | 0.00 | 0.00 | 78 | 1011.8 |
| 20260505033511 | 23 | 219 | 6.4 | 9.7 | 0.00 | 0.00 | 0.00 | 78 | 1011.9 |
| 20260505033011 | 23 | 206 | 1.6 | 8.0 | 0.00 | 0.00 | 0.00 | 78 | 1012.0 |
| 20260505032511 | 23 | 202 | 3.2 | 8.0 | 0.00 | 0.00 | 0.00 | 78 | 1011.9 |
| 20260505032011 | 23 | 152 | 1.6 | 6.4 | 0.00 | 0.00 | 0.00 | 78 | 1011.9 |
| 20260505031511 | 23 | 162 | 6.4 | 6.4 | 0.00 | 0.00 | 0.00 | 78 | 1011.8 |
| 20260505030511 | 23 | 150 | 1.6 | 17.7 | 0.00 | 0.00 | 0.00 | 77 | 1011.8 |
| 20260505030011 | 23 | 189 | 16.1 | 14.5 | 0.00 | 0.00 | 0.00 | 77 | 1011.7 |
| 20260505025511 | 23 | 156 | 3.2 | 14.5 | 0.00 | 0.00 | 0.00 | 77 | 1011.6 |
| 20260505024011 | 23 | 191 | 4.8 | 12.9 | 0.00 | 0.00 | 0.00 | 77 | 1011.7 |
| 20260505023511 | 23 | 204 | 1.6 | 8.0 | 0.00 | 0.00 | 0.00 | 77 | 1011.8 |
| 20260505023011 | 23 | 186 | 1.6 | 12.9 | 0.00 | 0.00 | 0.00 | 77 | 1011.8 |
| 20260505022511 | 23 | 192 | 0.0 | 16.1 | 0.00 | 0.00 | 0.00 | 76 | 1011.7 |
| 20260505022011 | 23 | 219 | 3.2 | 16.1 | 0.00 | 0.00 | 0.00 | 76 | 1011.7 |
| 20260505021011 | 23 | 175 | 4.8 | 14.5 | 0.00 | 0.00 | 0.00 | 76 | 1011.6 |
| 20260505020511 | 23 | 193 | 3.2 | 14.5 | 0.00 | 0.00 | 0.00 | 75 | 1011.5 |
| 20260505020011 | 23 | 129 | 4.8 | 16.1 | 0.00 | 0.00 | 0.00 | 75 | 1011.4 |
| 20260505014011 | 23 | 164 | 1.6 | 12.9 | 0.00 | 0.00 | 0.00 | 74 | 1011.4 |
| 20260505013511 | 23 | 156 | 3.2 | 12.9 | 0.00 | 0.00 | 0.00 | 74 | 1011.2 |
| 20260505013011 | 24 | 190 | 1.6 | 11.3 | 0.00 | 0.00 | 0.00 | 74 | 1011.2 |
| 20260505012511 | 24 | 98 | 1.6 | 11.3 | 0.00 | 0.00 | 0.00 | 74 | 1011.1 |
| 20260505011511 | 24 | 141 | 0.0 | 9.7 | 0.00 | 0.00 | 0.00 | 74 | 1011.2 |
| 20260505010511 | 24 | 188 | 1.6 | 4.8 | 0.00 | 0.00 | 0.00 | 73 | 1011.2 |
| 20260505010010 | 24 | 183 | 1.6 | 8.0 | 0.00 | 0.00 | 0.00 | 72 | 1011.1 |
| 20260505005511 | 24 | 190 | 1.6 | 8.0 | 0.00 | 0.00 | 0.00 | 72 | 1011.2 |
| 20260505005010 | 25 | 212 | 0.0 | 11.3 | 0.00 | 0.00 | 0.00 | 71 | 1011.1 |
| 20260505004511 | 25 | 227 | 3.2 | 11.3 | 0.00 | 0.00 | 0.00 | 71 | 1010.9 |
| 20260505004010 | 25 | 162 | 3.2 | 6.4 | 0.00 | 0.00 | 0.00 | 70 | 1010.8 |
| 20260505002510 | 25 | 196 | 4.8 | 9.7 | 0.00 | 0.00 | 0.00 | 69 | 1010.7 |
| 20260505001510 | 25 | 279 | 1.6 | 16.1 | 0.00 | 0.00 | 0.00 | 69 | 1010.8 |
| 20260505001010 | 25 | 134 | 4.8 | 11.3 | 0.00 | 0.00 | 0.00 | 68 | 1010.8 |
| 20260505000510 | 25 | 265 | 3.2 | 9.7 | 0.00 | 0.00 | 0.00 | 69 | 1010.9 |
| 20260504235510 | 25 | 116 | 9.7 | 8.0 | 0.00 | 0.00 | 0.00 | 69 | 1010.8 |
| 20260504235010 | 26 | 168 | 6.4 | 9.7 | 0.00 | 0.00 | 0.00 | 69 | 1010.8 |
| 20260504234511 | 26 | 163 | 1.6 | 9.7 | 0.00 | 0.00 | 0.00 | 69 | 1010.8 |
| 20260504234011 | 26 | 139 | 0.0 | 9.7 | 0.00 | 0.00 | 0.00 | 68 | 1011.0 |
| 20260504233511 | 26 | 178 | 1.6 | 14.5 | 0.00 | 0.00 | 0.00 | 67 | 1011.0 |
| 20260504233010 | 26 | 158 | 1.6 | 14.5 | 0.00 | 0.00 | 0.00 | 66 | 1011.1 |
| 20260504232510 | 26 | 50 | 3.2 | 12.9 | 0.00 | 0.00 | 0.00 | 66 | 1011.0 |
| 20260504232010 | 26 | 217 | 3.2 | 8.0 | 0.00 | 0.00 | 0.00 | 66 | 1011.1 |
| 20260504231510 | 26 | 127 | 3.2 | 14.5 | 0.00 | 0.00 | 0.00 | 66 | 1011.3 |
| 20260504231010 | 26 | 168 | 3.2 | 17.7 | 0.00 | 0.00 | 0.00 | 66 | 1011.2 |
| 20260504230510 | 26 | 146 | 6.4 | 19.3 | 0.00 | 0.00 | 0.00 | 65 | 1011.4 |
| 20260504230010 | 26 | 135 | 3.2 | 19.3 | 0.00 | 0.00 | 0.00 | 65 | 1011.4 |
| 20260504225511 | 26 | 221 | 1.6 | 16.1 | 0.00 | 0.00 | 0.00 | 64 | 1011.3 |
| 20260504225010 | 26 | 185 | 3.2 | 16.1 | 0.00 | 0.00 | 0.00 | 64 | 1011.2 |
| 20260504224510 | 26 | 172 | 3.2 | 12.9 | 0.00 | 0.00 | 0.00 | 63 | 1011.3 |
| 20260504224010 | 27 | 183 | 1.6 | 16.1 | 0.00 | 0.00 | 0.00 | 63 | 1011.4 |
| 20260504223511 | 27 | 122 | 4.8 | 16.1 | 0.00 | 0.00 | 0.00 | 62 | 1011.4 |
| 20260504223010 | 27 | 175 | 8.0 | 16.1 | 0.00 | 0.00 | 0.00 | 62 | 1011.5 |
| 20260504222510 | 27 | 133 | 4.8 | 12.9 | 0.00 | 0.00 | 0.00 | 61 | 1011.6 |
| 20260504222010 | 27 | 206 | 3.2 | 12.9 | 0.00 | 0.00 | 0.00 | 61 | 1011.6 |
| 20260504221010 | 27 | 220 | 0.0 | 8.0 | 0.00 | 0.00 | 0.00 | 61 | 1011.7 |
| 20260504220010 | 27 | 141 | 1.6 | 19.3 | 0.00 | 0.00 | 0.00 | 60 | 1011.7 |
| 20260504215511 | 27 | 140 | 0.0 | 19.3 | 0.00 | 0.00 | 0.00 | 60 | 1011.7 |
| 20260504215010 | 28 | 196 | 4.8 | 9.7 | 0.00 | 0.00 | 0.00 | 59 | 1011.8 |
| 20260504214510 | 28 | 121 | 3.2 | 8.0 | 0.00 | 0.00 | 0.00 | 59 | 1011.8 |
| 20260504214011 | 28 | 170 | 1.6 | 16.1 | 0.00 | 0.00 | 0.00 | 59 | 1011.9 |
| 20260504213510 | 28 | 133 | 3.2 | 16.1 | 0.00 | 0.00 | 0.00 | 57 | 1011.9 |
| 20260504213010 | 28 | 196 | 3.2 | 11.3 | 0.00 | 0.00 | 0.00 | 59 | 1011.9 |
| 20260504212510 | 28 | 158 | 1.6 | 11.3 | 0.00 | 0.00 | 0.00 | 58 | 1012.0 |
| 20260504210511 | 28 | 284 | 3.2 | 8.0 | 0.00 | 0.00 | 0.00 | 57 | 1012.3 |
| 20260504210011 | 28 | 194 | 3.2 | 12.9 | 0.00 | 0.00 | 0.00 | 56 | 1012.4 |
| 20260504205511 | 28 | 194 | 3.2 | 12.9 | 0.00 | 0.00 | 0.00 | 55 | 1012.5 |
| 20260504205011 | 28 | 148 | 3.2 | 8.0 | 0.00 | 0.00 | 0.00 | 58 | 1012.7 |
| 20260504204511 | 28 | 298 | 1.6 | 8.0 | 0.00 | 0.00 | 0.00 | 57 | 1012.8 |
| 20260504204011 | 28 | 136 | 3.2 | 9.7 | 0.00 | 0.00 | 0.00 | 57 | 1012.8 |
| 20260504203511 | 28 | 129 | 3.2 | 14.5 | 0.00 | 0.00 | 0.00 | 56 | 1012.9 |
| 20260504203011 | 28 | 183 | 3.2 | 14.5 | 0.00 | 0.00 | 0.00 | 55 | 1012.9 |
| 20260504202511 | 29 | 8 | 1.6 | 6.4 | 0.00 | 0.00 | 0.00 | 55 | 1012.9 |
| 20260504202011 | 29 | 209 | 1.6 | 8.0 | 0.00 | 0.00 | 0.00 | 56 | 1013.3 |
| 20260504201511 | 29 | 3 | 1.6 | 8.0 | 0.00 | 0.00 | 0.00 | 56 | 1013.3 |
| 20260504201011 | 29 | 151 | 3.2 | 8.0 | 0.00 | 0.00 | 0.00 | 56 | 1013.4 |
| 20260504200511 | 28 | 310 | 1.6 | 4.8 | 0.00 | 0.00 | 0.00 | 58 | 1013.5 |
| 20260504200011 | 28 | 156 | 1.6 | 8.0 | 0.00 | 0.00 | 0.00 | 56 | 1013.5 |
| 20260504195511 | 28 | 258 | 0.0 | 11.3 | 0.00 | 0.00 | 0.00 | 55 | 1013.7 |
| 20260504195011 | 28 | 180 | 4.8 | 11.3 | 0.00 | 0.00 | 0.00 | 55 | 1013.8 |
| 20260504194511 | 28 | 185 | 1.6 | 6.4 | 0.00 | 0.00 | 0.00 | 57 | 1013.9 |
| 20260504194011 | 28 | 124 | 3.2 | 14.5 | 0.00 | 0.00 | 0.00 | 56 | 1013.9 |
| 20260504193011 | 28 | 180 | 4.8 | 14.5 | 0.00 | 0.00 | 0.00 | 57 | 1014.0 |
| 20260504192511 | 28 | 123 | 9.7 | 16.1 | 0.00 | 0.00 | 0.00 | 57 | 1014.2 |
| 20260504191511 | 28 | 121 | 3.2 | 8.0 | 0.00 | 0.00 | 0.00 | 59 | 1014.3 |
| 20260504191011 | 28 | 263 | 4.8 | 6.4 | 0.00 | 0.00 | 0.00 | 57 | 1014.4 |
| 20260504190511 | 28 | 66 | 3.2 | 19.3 | 0.00 | 0.00 | 0.00 | 58 | 1014.5 |
| 20260504185511 | 27 | 265 | 0.0 | 11.3 | 0.00 | 0.00 | 0.00 | 57 | 1014.5 |
| 20260504185011 | 27 | 358 | 0.0 | 16.1 | 0.00 | 0.00 | 0.00 | 59 | 1014.6 |
| 20260504184511 | 27 | 163 | 6.4 | 19.3 | 0.00 | 0.00 | 0.00 | 57 | 1014.7 |
| 20260504184011 | 27 | 165 | 16.1 | 19.3 | 0.00 | 0.00 | 0.00 | 58 | 1014.7 |
| 20260504183011 | 27 | 147 | 4.8 | 9.7 | 0.00 | 0.00 | 0.00 | 57 | 1014.6 |
| 20260504182511 | 27 | 196 | 0.0 | 12.9 | 0.00 | 0.00 | 0.00 | 56 | 1014.7 |
| 20260504182011 | 27 | 278 | 6.4 | 12.9 | 0.00 | 0.00 | 0.00 | 59 | 1014.9 |
| 20260504181511 | 27 | 173 | 6.4 | 12.9 | 0.00 | 0.00 | 0.00 | 57 | 1015.0 |
| 20260504180010 | 27 | 43 | 1.6 | 16.1 | 0.00 | 0.00 | 0.00 | 59 | 1015.1 |
| 20260504175011 | 27 | 122 | 6.4 | 16.1 | 0.00 | 0.00 | 0.00 | 56 | 1015.3 |
| 20260504174510 | 27 | 157 | 4.8 | 16.1 | 0.00 | 0.00 | 0.00 | 58 | 1015.3 |
| 20260504174011 | 27 | 142 | 3.2 | 9.7 | 0.00 | 0.00 | 0.00 | 59 | 1015.3 |
| 20260504173011 | 27 | 234 | 4.8 | 8.0 | 0.00 | 0.00 | 0.00 | 58 | 1015.5 |
| 20260504172511 | 27 | 169 | 1.6 | 9.7 | 0.00 | 0.00 | 0.00 | 58 | 1015.7 |
| 20260504171510 | 27 | 250 | 1.6 | 12.9 | 0.00 | 0.00 | 0.00 | 58 | 1015.9 |
| 20260504171010 | 27 | 129 | 12.9 | 16.1 | 0.00 | 0.00 | 0.00 | 60 | 1015.9 |
| 20260504170511 | 26 | 218 | 1.6 | 16.1 | 0.00 | 0.00 | 0.00 | 58 | 1016.0 |
| 20260504151010 | 24 | 218 | 6.4 | 11.3 | 0.00 | 0.00 | 0.00 | 64 | 1016.8 |
| 20260504150510 | 24 | 278 | 1.6 | 17.7 | 0.00 | 0.00 | 0.00 | 65 | 1016.8 |
| 20260504141011 | 22 | 124 | 1.6 | 12.9 | 0.00 | 0.00 | 0.00 | 68 | 1016.8 |
| 20260504140511 | 22 | 167 | 3.2 | 12.9 | 0.00 | 0.00 | 0.00 | 67 | 1016.6 |
| 20260504130511 | 16 | 172 | 1.6 | 3.2 | 0.00 | 0.00 | 0.00 | 89 | 1016.8 |
| 20260504110511 | 14 | 248 | 0.0 | 0.0 | 0.00 | 0.00 | 0.00 | 87 | 1016.3 |
| 20260504100511 | 15 | 248 | 0.0 | 0.0 | 0.00 | 0.00 | 0.00 | 84 | 1016.3 |
| 20260504081510 | 16 | 248 | 0.0 | 0.0 | 0.00 | 0.00 | 0.00 | 78 | 1017.2 |
| 20260504081010 | 16 | 248 | 0.0 | 0.0 | 0.00 | 0.00 | 0.00 | 78 | 1017.2 |
| 20260504050511 | 17 | 248 | 0.0 | 1.6 | 0.00 | 0.00 | 0.00 | 70 | 1018.9 |
| 20260504050012 | 17 | 248 | 0.0 | 1.6 | 0.00 | 0.00 | 0.00 | 70 | 1019.0 |
| 20260504045511 | 17 | 171 | 0.0 | 0.0 | 0.00 | 0.00 | 0.00 | 69 | 1019.0 |
| 20260504045011 | 18 | 171 | 0.0 | 0.0 | 0.00 | 0.00 | 0.00 | 68 | 1019.1 |
| 20260504044511 | 18 | 171 | 0.0 | 0.0 | 0.00 | 0.00 | 0.00 | 68 | 1019.1 |
| 20260504044011 | 18 | 171 | 0.0 | 0.0 | 0.00 | 0.00 | 0.00 | 67 | 1019.2 |
| 20260504043511 | 18 | 171 | 0.0 | 1.6 | 0.00 | 0.00 | 0.00 | 67 | 1019.1 |